Home   Weather   Brandon   Past weeks

Flag for Canada Past Weather in Brandon, Manitoba, Canada — Yesterday and Last 2 Weeks

Now
43 °F

Partly sunny.


Feels Like: 33 °F
Forecast: N/A
Wind: 23 mph from Northeast

Location: Brandon

Current Time: Apr 26, 2017 at 6:41:44 pm

Latest Report: Apr 26, 2017 at 6:00 pm


Visibility: 15 mi

Pressure: 29.92 "Hg

Humidity: 46%

Dew Point: 23 °F

Location of BrandonLocation

Past Weather in Brandon — Graph

°F

Brandon Temperature Yesterday

Maximum temperature yesterday: 39 °F (at 3:00 pm)
Minimum temperature yesterday: 25 °F (at 5:00 am)
Average temperature yesterday: 32 °F

High & Low Weather Summary for the Past Weeks

 TemperatureHumidityPressure
High64 °F (Apr 14, 5:00 pm)100% (Apr 12, 5:00 am)30.38 "Hg (Apr 12, 5:00 am)
Low19 °F (Apr 17, 5:00 am)33% (Apr 12, 5:00 pm)29.57 "Hg (Apr 14, 4:00 pm)
Average39 °F72%30.10 "Hg
* Reported Apr 11 4:00 pm — Apr 26 4:00 pm, Brandon, Weather by CustomWeather, © 2017

Note: Actual official high and low records may vary slightly from our data, if they occured in-between our weather recording intervals... More about our weather records

Advertising

Brandon Weather History for the Previous 24 Hours

Scroll right to see more
 ConditionsComfort  
Time TempWeatherWind HumidityBarometerVisibility
4:00 pm
Wed, Apr 26
45 °FPartly sunny.18 mph49%29.93 "Hg15 mi
3:00 pm43 °FPartly sunny.18 mph42%29.94 "Hg15 mi
2:00 pm41 °FPartly sunny.24 mph45%29.96 "Hg15 mi
1:00 pm39 °FPartly sunny.24 mph45%29.99 "Hg15 mi
12:00 pm36 °FPartly sunny.21 mph52%30.01 "Hg15 mi
11:00 am34 °FPartly sunny.18 mph56%30.04 "Hg15 mi
10:00 am32 °FPartly sunny.20 mph60%30.05 "Hg15 mi
9:00 am30 °FPartly sunny.20 mph59%30.06 "Hg15 mi
8:00 am27 °FPartly sunny.15 mph69%30.05 "Hg15 mi
7:00 am27 °FPartly sunny.15 mph69%30.06 "Hg15 mi
6:00 am27 °FPassing clouds.16 mph69%30.06 "Hg15 mi
5:00 am27 °FPassing clouds.16 mph69%30.06 "Hg15 mi
4:00 am27 °FPassing clouds.17 mph69%30.06 "Hg15 mi
3:00 am28 °FPassing clouds.16 mph59%30.07 "Hg15 mi
2:00 am28 °FPassing clouds.16 mph59%30.09 "Hg15 mi
1:00 am28 °FPassing clouds.14 mph59%30.10 "Hg15 mi
12:00 am30 °FPassing clouds.15 mph55%30.09 "Hg15 mi
11:00 pm
Tue, Apr 25
30 °FPassing clouds.14 mph59%30.10 "Hg15 mi
10:00 pm30 °FPassing clouds.16 mph59%30.11 "Hg15 mi
9:00 pm32 °FPassing clouds.15 mph60%30.12 "Hg15 mi
8:00 pm36 °FPartly sunny.18 mph52%30.10 "Hg15 mi
7:00 pm37 °FPartly sunny.21 mph48%30.09 "Hg15 mi
6:00 pm39 °FPartly sunny.23 mph48%30.06 "Hg15 mi
Weather by CustomWeather, © 2017

See weather overviewHow to use our weather pages